sat.trackr.live / text

‹ back to catalog

STARLINK-35900

NORAD 66886 · 2025-283J

PAYLOAD ACTIVE UNKNOWN

§ Identity

Operator
Country
US
Launch date
2025-12-04
Launch site
AFWTR
Launch vehicle
Mass (kg)
RCS (m²)

Purposes: comms

External: N2YO · Heavens-Above · Gunter

§ Orbital elements

Epoch: 2026-05-24T23:00:08.186976Z

Period
93.85 min
Inclination
53.1604°
Eccentricity
0.0001164
Mean motion
15.34394874 rev/d
Perigee alt
461.9 km
Apogee alt
463.5 km
Semi-major
6,840.9 km
B*
4.9967e-4
RAAN
29.7402°
Arg perigee
81.0062°
Mean anomaly
279.1072°
Rev number
2,752

§ Raw data

STARLINK-359001 66886U 25283J   26144.95842809  .00016540  00000+0  49967-3 0  99992 66886  53.1604  29.7402 0001164  81.0062 279.1072 15.34394874 27520

JSON: /api/v1/satellites/66886 · /tle

For live sub-satellite position, see the globe view (requires WebGL).

§ Visibility from observer

Set your observer location to see the next 7 days of passes ≥ 10°. The values pass through the URL so the page stays shareable.

No JS? Fill the form by hand. The geolocation button needs JavaScript.